Year,Month,Day,Hour,Minute,Value (Times are PST for temperature in C)
2022,07,28,00,00,23.80
2022,07,28,00,01,23.80
2022,07,28,00,02,23.80
2022,07,28,00,03,23.80
2022,07,28,00,04,23.80
2022,07,28,00,05,23.80
2022,07,28,00,06,23.80
2022,07,28,00,07,23.80
2022,07,28,00,08,23.80
2022,07,28,00,09,23.80
2022,07,28,00,10,23.80
2022,07,28,00,11,23.80
2022,07,28,00,12,23.70
2022,07,28,00,13,23.70
2022,07,28,00,14,23.70
2022,07,28,00,15,23.70
2022,07,28,00,16,23.70
2022,07,28,00,17,23.70
2022,07,28,00,18,23.60
2022,07,28,00,19,23.60
2022,07,28,00,20,23.60
2022,07,28,00,21,23.60
2022,07,28,00,22,23.60
2022,07,28,00,23,23.50
2022,07,28,00,24,23.50
2022,07,28,00,25,23.50
2022,07,28,00,26,23.50
2022,07,28,00,27,23.50
2022,07,28,00,28,23.40
2022,07,28,00,29,23.40
2022,07,28,00,30,23.40
2022,07,28,00,31,23.40
2022,07,28,00,32,23.40
2022,07,28,00,33,23.40
2022,07,28,00,34,23.40
2022,07,28,00,35,23.40
2022,07,28,00,36,23.40
2022,07,28,00,37,23.30
2022,07,28,00,38,23.30
2022,07,28,00,39,23.30
2022,07,28,00,40,23.30
2022,07,28,00,41,23.20
2022,07,28,00,42,23.20
2022,07,28,00,43,23.20
2022,07,28,00,44,23.20
2022,07,28,00,45,23.10
2022,07,28,00,46,23.10
2022,07,28,00,47,23.10
2022,07,28,00,48,23.10
2022,07,28,00,49,23.10
2022,07,28,00,50,23.10
2022,07,28,00,51,23.00
2022,07,28,00,52,23.00
2022,07,28,00,53,23.00
2022,07,28,00,54,23.00
2022,07,28,00,55,23.00
2022,07,28,00,56,23.00
2022,07,28,00,57,23.00
2022,07,28,00,58,23.00
2022,07,28,00,59,22.90
2022,07,28,01,00,22.90
2022,07,28,01,01,22.90
2022,07,28,01,02,22.90
2022,07,28,01,03,22.90
2022,07,28,01,04,22.90
2022,07,28,01,05,22.90
2022,07,28,01,06,22.90
2022,07,28,01,07,22.90
2022,07,28,01,08,22.90
2022,07,28,01,09,22.80
2022,07,28,01,10,22.80
2022,07,28,01,11,22.80
2022,07,28,01,12,22.80
2022,07,28,01,13,22.80
2022,07,28,01,14,22.80
2022,07,28,01,15,22.80
2022,07,28,01,16,22.80
2022,07,28,01,17,22.70
2022,07,28,01,18,22.70
2022,07,28,01,19,22.70
2022,07,28,01,20,22.70
2022,07,28,01,21,22.70
2022,07,28,01,22,22.70
2022,07,28,01,23,22.70
2022,07,28,01,24,22.70
2022,07,28,01,25,22.70
2022,07,28,01,26,22.70
2022,07,28,01,27,22.70
2022,07,28,01,28,22.70
2022,07,28,01,29,22.70
2022,07,28,01,30,22.70
2022,07,28,01,31,22.60
2022,07,28,01,32,22.60
2022,07,28,01,33,22.60
2022,07,28,01,34,22.60
2022,07,28,01,35,22.60
2022,07,28,01,36,22.60
2022,07,28,01,37,22.60
2022,07,28,01,38,22.60
2022,07,28,01,39,22.60
2022,07,28,01,40,22.60
2022,07,28,01,41,22.60
2022,07,28,01,42,22.60
2022,07,28,01,43,22.50
2022,07,28,01,44,22.50
2022,07,28,01,45,22.50
2022,07,28,01,46,22.50
2022,07,28,01,47,22.50
2022,07,28,01,48,22.50
2022,07,28,01,49,22.50
2022,07,28,01,50,22.40
2022,07,28,01,51,22.40
2022,07,28,01,52,22.40
2022,07,28,01,53,22.40
2022,07,28,01,54,22.40
2022,07,28,01,55,22.40
2022,07,28,01,56,22.40
2022,07,28,01,57,22.40
2022,07,28,01,58,22.40
2022,07,28,01,59,22.40
2022,07,28,02,00,22.30
2022,07,28,02,01,22.30
2022,07,28,02,02,22.30
2022,07,28,02,03,22.30
2022,07,28,02,04,22.30
2022,07,28,02,05,22.30
2022,07,28,02,06,22.30
2022,07,28,02,07,22.30
2022,07,28,02,08,22.20
2022,07,28,02,09,22.20
2022,07,28,02,10,22.20
2022,07,28,02,11,22.20
2022,07,28,02,12,22.20
2022,07,28,02,13,22.20
2022,07,28,02,14,22.20
2022,07,28,02,15,22.10
2022,07,28,02,16,22.10
2022,07,28,02,17,22.10
2022,07,28,02,18,22.10
2022,07,28,02,19,22.10
2022,07,28,02,20,22.10
2022,07,28,02,21,22.10
2022,07,28,02,22,22.00
2022,07,28,02,23,22.00
2022,07,28,02,24,22.00
2022,07,28,02,25,22.00
2022,07,28,02,26,21.90
2022,07,28,02,27,21.90
2022,07,28,02,28,21.90
2022,07,28,02,29,21.90
2022,07,28,02,30,21.80
2022,07,28,02,31,21.80
2022,07,28,02,32,21.80
2022,07,28,02,33,21.80
2022,07,28,02,34,21.80
2022,07,28,02,35,21.80
2022,07,28,02,36,21.80
2022,07,28,02,37,21.80
2022,07,28,02,38,21.80
2022,07,28,02,39,21.80
2022,07,28,02,40,21.70
2022,07,28,02,41,21.70
2022,07,28,02,42,21.70
2022,07,28,02,43,21.70
2022,07,28,02,44,21.70
2022,07,28,02,45,21.70
2022,07,28,02,46,21.70
2022,07,28,02,47,21.70
2022,07,28,02,48,21.70
2022,07,28,02,49,21.70
2022,07,28,02,50,21.60
2022,07,28,02,51,21.60
2022,07,28,02,52,21.60
2022,07,28,02,53,21.60
2022,07,28,02,54,21.60
2022,07,28,02,55,21.60
2022,07,28,02,56,21.60
2022,07,28,02,57,21.60
2022,07,28,02,58,21.50
2022,07,28,02,59,21.50
2022,07,28,03,00,21.50
2022,07,28,03,01,21.50
2022,07,28,03,02,21.50
2022,07,28,03,03,21.50
2022,07,28,03,04,21.40
2022,07,28,03,05,21.40
2022,07,28,03,06,21.40
2022,07,28,03,07,21.40
2022,07,28,03,08,21.40
2022,07,28,03,09,21.40
2022,07,28,03,10,21.40
2022,07,28,03,11,21.40
2022,07,28,03,12,21.40
2022,07,28,03,13,21.40
2022,07,28,03,14,21.40
2022,07,28,03,15,21.30
2022,07,28,03,16,21.30
2022,07,28,03,17,21.30
2022,07,28,03,18,21.30
2022,07,28,03,19,21.30
2022,07,28,03,20,21.30
2022,07,28,03,21,21.20
2022,07,28,03,22,21.20
2022,07,28,03,23,21.20
2022,07,28,03,24,21.20
2022,07,28,03,25,21.20
2022,07,28,03,26,21.20
2022,07,28,03,27,21.20
2022,07,28,03,28,21.20
2022,07,28,03,29,21.20
2022,07,28,03,30,21.20
2022,07,28,03,31,21.20
2022,07,28,03,32,21.10
2022,07,28,03,33,21.10
2022,07,28,03,34,21.10
2022,07,28,03,35,21.10
2022,07,28,03,36,21.10
2022,07,28,03,37,21.10
2022,07,28,03,38,21.10
2022,07,28,03,39,21.00
2022,07,28,03,40,21.00
2022,07,28,03,41,21.00
2022,07,28,03,42,21.00
2022,07,28,03,43,21.00
2022,07,28,03,44,21.00
2022,07,28,03,45,21.00
2022,07,28,03,46,20.90
2022,07,28,03,47,20.90
2022,07,28,03,48,20.90
2022,07,28,03,49,20.90
2022,07,28,03,50,20.90
2022,07,28,03,51,20.90
2022,07,28,03,52,20.90
2022,07,28,03,53,20.80
2022,07,28,03,54,20.80
2022,07,28,03,55,20.80
2022,07,28,03,56,20.80
2022,07,28,03,57,20.80
2022,07,28,03,58,20.80
2022,07,28,03,59,20.80
2022,07,28,04,00,20.70
2022,07,28,04,01,20.70
2022,07,28,04,02,20.70
2022,07,28,04,03,20.70
2022,07,28,04,04,20.70
2022,07,28,04,05,20.70
2022,07,28,04,06,20.70
2022,07,28,04,07,20.70
2022,07,28,04,08,20.70
2022,07,28,04,09,20.70
2022,07,28,04,10,20.70
2022,07,28,04,11,20.60
2022,07,28,04,12,20.60
2022,07,28,04,13,20.60
2022,07,28,04,14,20.60
2022,07,28,04,15,20.60
2022,07,28,04,16,20.60
2022,07,28,04,17,20.60
2022,07,28,04,18,20.60
2022,07,28,04,19,20.60
2022,07,28,04,20,20.60
2022,07,28,04,21,20.60
2022,07,28,04,22,20.60
2022,07,28,04,23,20.50
2022,07,28,04,24,20.50
2022,07,28,04,25,20.50
2022,07,28,04,26,20.50
2022,07,28,04,27,20.50
2022,07,28,04,28,20.50
2022,07,28,04,29,20.50
2022,07,28,04,30,20.50
2022,07,28,04,31,20.50
2022,07,28,04,32,20.50
2022,07,28,04,33,20.40
2022,07,28,04,34,20.40
2022,07,28,04,35,20.40
2022,07,28,04,36,20.40
2022,07,28,04,37,20.40
2022,07,28,04,38,20.40
2022,07,28,04,39,20.40
2022,07,28,04,40,20.40
2022,07,28,04,41,20.30
2022,07,28,04,42,20.30
2022,07,28,04,43,20.30
2022,07,28,04,44,20.30
2022,07,28,04,45,20.30
2022,07,28,04,46,20.30
2022,07,28,04,47,20.30
2022,07,28,04,48,20.30
2022,07,28,04,49,20.30
2022,07,28,04,50,20.30
2022,07,28,04,51,20.30
2022,07,28,04,52,20.30
2022,07,28,04,53,20.30
2022,07,28,04,54,20.20
2022,07,28,04,55,20.20
2022,07,28,04,56,20.20
2022,07,28,04,57,20.20
2022,07,28,04,58,20.20
2022,07,28,04,59,20.20
2022,07,28,05,00,20.20
2022,07,28,05,01,20.20
2022,07,28,05,02,20.20
2022,07,28,05,03,20.10
2022,07,28,05,04,20.10
2022,07,28,05,05,20.10
2022,07,28,05,06,20.10
2022,07,28,05,07,20.10
2022,07,28,05,08,20.10
2022,07,28,05,09,20.10
2022,07,28,05,10,20.10
2022,07,28,05,11,20.10
2022,07,28,05,12,20.10
2022,07,28,05,13,20.10
2022,07,28,05,14,20.00
2022,07,28,05,15,20.00
2022,07,28,05,16,20.00
2022,07,28,05,17,20.00
2022,07,28,05,18,20.00
2022,07,28,05,19,20.00
2022,07,28,05,20,20.00
2022,07,28,05,21,19.90
2022,07,28,05,22,19.90
2022,07,28,05,23,19.90
2022,07,28,05,24,19.90
2022,07,28,05,25,19.90
2022,07,28,05,26,19.90
2022,07,28,05,27,19.80
2022,07,28,05,28,19.80
2022,07,28,05,29,19.80
2022,07,28,05,30,19.80
2022,07,28,05,31,19.80
2022,07,28,05,32,19.80
2022,07,28,05,33,19.80
2022,07,28,05,34,19.70
2022,07,28,05,35,19.70
2022,07,28,05,36,19.70
2022,07,28,05,37,19.70
2022,07,28,05,38,19.70
2022,07,28,05,39,19.70
2022,07,28,05,40,19.70
2022,07,28,05,41,19.70
2022,07,28,05,42,19.70
2022,07,28,05,43,19.60
2022,07,28,05,44,19.60
2022,07,28,05,45,19.60
2022,07,28,05,46,19.60
2022,07,28,05,47,19.60
2022,07,28,05,48,19.60
2022,07,28,05,49,19.60
2022,07,28,05,50,19.60
2022,07,28,05,51,19.60
2022,07,28,05,52,19.60
2022,07,28,05,53,19.60
2022,07,28,05,54,19.60
2022,07,28,05,55,19.60
2022,07,28,05,56,19.60
2022,07,28,05,57,19.60
2022,07,28,05,58,19.60
2022,07,28,05,59,19.60
2022,07,28,06,00,19.60
2022,07,28,06,01,19.60
2022,07,28,06,02,19.60
2022,07,28,06,03,19.60
2022,07,28,06,04,19.60
2022,07,28,06,05,19.60
2022,07,28,06,06,19.60
2022,07,28,06,07,19.60
2022,07,28,06,08,19.60
2022,07,28,06,09,19.60
2022,07,28,06,10,19.60
2022,07,28,06,11,19.60
2022,07,28,06,12,19.60
2022,07,28,06,13,19.60
2022,07,28,06,14,19.60
2022,07,28,06,15,19.60
2022,07,28,06,16,19.60
2022,07,28,06,17,19.60
2022,07,28,06,18,19.50
2022,07,28,06,19,19.50
2022,07,28,06,20,19.50
2022,07,28,06,21,19.50
2022,07,28,06,22,19.50
2022,07,28,06,23,19.50
2022,07,28,06,24,19.50
2022,07,28,06,25,19.50
2022,07,28,06,26,19.50
2022,07,28,06,27,19.50
2022,07,28,06,28,19.50
2022,07,28,06,29,19.50
2022,07,28,06,30,19.50
2022,07,28,06,31,19.50
2022,07,28,06,32,19.50
2022,07,28,06,33,19.60
2022,07,28,06,34,19.60
2022,07,28,06,35,19.60
2022,07,28,06,36,19.60
2022,07,28,06,37,19.60
2022,07,28,06,38,19.70
2022,07,28,06,39,19.70
2022,07,28,06,40,19.70
2022,07,28,06,41,19.70
2022,07,28,06,42,19.70
2022,07,28,06,43,19.70
2022,07,28,06,44,19.70
2022,07,28,06,45,19.80
2022,07,28,06,46,19.80
2022,07,28,06,47,19.80
2022,07,28,06,48,19.80
2022,07,28,06,49,19.80
2022,07,28,06,50,19.90
2022,07,28,06,51,19.90
2022,07,28,06,52,19.90
2022,07,28,06,53,19.90
2022,07,28,06,54,20.00
2022,07,28,06,55,20.00
2022,07,28,06,56,20.10
2022,07,28,06,57,20.10
2022,07,28,06,58,20.20
2022,07,28,06,59,20.20
2022,07,28,07,00,20.30
2022,07,28,07,01,20.30
2022,07,28,07,02,20.30
2022,07,28,07,03,20.40
2022,07,28,07,04,20.40
2022,07,28,07,05,20.40
2022,07,28,07,06,20.50
2022,07,28,07,07,20.50
2022,07,28,07,08,20.60
2022,07,28,07,09,20.60
2022,07,28,07,10,20.70
2022,07,28,07,11,20.70
2022,07,28,07,12,20.80
2022,07,28,07,13,20.80
2022,07,28,07,14,20.80
2022,07,28,07,15,20.80
2022,07,28,07,16,20.90
2022,07,28,07,17,20.90
2022,07,28,07,18,21.00
2022,07,28,07,19,21.00
2022,07,28,07,20,21.10
2022,07,28,07,21,21.10
2022,07,28,07,22,21.10
2022,07,28,07,23,21.20
2022,07,28,07,24,21.20
2022,07,28,07,25,21.30
2022,07,28,07,26,21.30
2022,07,28,07,27,21.30
2022,07,28,07,28,21.40
2022,07,28,07,29,21.50
2022,07,28,07,30,21.60
2022,07,28,07,31,21.60
2022,07,28,07,32,21.70
2022,07,28,07,33,21.80
2022,07,28,07,34,21.90
2022,07,28,07,35,22.00
2022,07,28,07,36,22.10
2022,07,28,07,37,22.10
2022,07,28,07,38,22.20
2022,07,28,07,39,22.30
2022,07,28,07,40,22.40
2022,07,28,07,41,22.50
2022,07,28,07,42,22.60
2022,07,28,07,43,22.70
2022,07,28,07,44,22.80
2022,07,28,07,45,22.90
2022,07,28,07,46,23.00
2022,07,28,07,47,23.10
2022,07,28,07,48,23.10
2022,07,28,07,49,23.20
2022,07,28,07,50,23.30
2022,07,28,07,51,23.40
2022,07,28,07,52,23.40
2022,07,28,07,53,23.50
2022,07,28,07,54,23.60
2022,07,28,07,55,23.60
2022,07,28,07,56,23.70
2022,07,28,07,57,23.80
2022,07,28,07,58,23.80
2022,07,28,07,59,23.90
2022,07,28,08,00,23.90
2022,07,28,08,01,24.00
2022,07,28,08,02,24.10
2022,07,28,08,03,24.10
2022,07,28,08,04,24.20
2022,07,28,08,05,24.20
2022,07,28,08,06,24.30
2022,07,28,08,07,24.30
2022,07,28,08,08,24.30
2022,07,28,08,09,24.40
2022,07,28,08,10,24.40
2022,07,28,08,11,24.40
2022,07,28,08,12,24.40
2022,07,28,08,13,24.40
2022,07,28,08,14,24.40
2022,07,28,08,15,24.40
2022,07,28,08,16,24.40
2022,07,28,08,17,24.40
2022,07,28,08,18,24.40
2022,07,28,08,19,24.40
2022,07,28,08,20,24.50
2022,07,28,08,21,24.50
2022,07,28,08,22,24.50
2022,07,28,08,23,24.50
2022,07,28,08,24,24.50
2022,07,28,08,25,24.50
2022,07,28,08,26,24.50
2022,07,28,08,27,24.50
2022,07,28,08,28,24.50
2022,07,28,08,29,24.50
2022,07,28,08,30,24.50
2022,07,28,08,31,24.60
2022,07,28,08,32,24.50
2022,07,28,08,33,24.60
2022,07,28,08,34,24.50
2022,07,28,08,35,24.50
2022,07,28,08,36,24.50
2022,07,28,08,37,24.50
2022,07,28,08,38,24.50
2022,07,28,08,39,24.50
2022,07,28,08,40,24.50
2022,07,28,08,41,24.60
2022,07,28,08,42,24.60
2022,07,28,08,43,24.60
2022,07,28,08,44,24.60
2022,07,28,08,45,24.60
2022,07,28,08,46,24.70
2022,07,28,08,47,24.70
2022,07,28,08,48,24.70
2022,07,28,08,49,24.70
2022,07,28,08,50,24.70
2022,07,28,08,51,24.70
2022,07,28,08,52,24.80
2022,07,28,08,53,24.80
2022,07,28,08,54,24.80
2022,07,28,08,55,24.80
2022,07,28,08,56,24.80
2022,07,28,08,57,24.80
2022,07,28,08,58,24.80
2022,07,28,08,59,24.80
2022,07,28,09,00,24.80
2022,07,28,09,01,24.80
2022,07,28,09,02,24.90
2022,07,28,09,03,24.90
2022,07,28,09,04,24.90
2022,07,28,09,05,24.90
2022,07,28,09,06,24.90
2022,07,28,09,07,25.00
2022,07,28,09,08,25.00
2022,07,28,09,09,25.10
2022,07,28,09,10,25.10
2022,07,28,09,11,25.20
2022,07,28,09,12,25.20
2022,07,28,09,13,25.30
2022,07,28,09,14,25.30
2022,07,28,09,15,25.30
2022,07,28,09,16,25.30
2022,07,28,09,17,25.30
2022,07,28,09,18,25.30
2022,07,28,09,19,25.30
2022,07,28,09,20,25.30
2022,07,28,09,21,25.30
2022,07,28,09,22,25.30
2022,07,28,09,23,25.30
2022,07,28,09,24,25.30
2022,07,28,09,25,25.30
2022,07,28,09,26,25.40
2022,07,28,09,27,25.40
2022,07,28,09,28,25.40
2022,07,28,09,29,25.50
2022,07,28,09,30,25.50
2022,07,28,09,31,25.50
2022,07,28,09,32,25.50
2022,07,28,09,33,25.50
2022,07,28,09,34,25.50
2022,07,28,09,35,25.50
2022,07,28,09,36,25.60
2022,07,28,09,37,25.60
2022,07,28,09,38,25.60
2022,07,28,09,39,25.60
2022,07,28,09,40,25.70
2022,07,28,09,41,25.70
2022,07,28,09,42,25.70
2022,07,28,09,43,25.70
2022,07,28,09,44,25.80
2022,07,28,09,45,25.80
2022,07,28,09,46,25.80
2022,07,28,09,47,25.80
2022,07,28,09,48,25.90
2022,07,28,09,49,25.90
2022,07,28,09,50,25.90
2022,07,28,09,51,25.90
2022,07,28,09,52,25.90
2022,07,28,09,53,25.90
2022,07,28,09,54,26.00
2022,07,28,09,55,26.00
2022,07,28,09,56,26.00
2022,07,28,09,57,26.10
2022,07,28,09,58,26.10
2022,07,28,09,59,26.10
2022,07,28,10,00,26.10
2022,07,28,10,01,26.10
2022,07,28,10,02,26.20
2022,07,28,10,03,26.20
2022,07,28,10,04,26.20
2022,07,28,10,05,26.20
2022,07,28,10,06,26.20
2022,07,28,10,07,26.20
2022,07,28,10,08,26.20
2022,07,28,10,09,26.30
2022,07,28,10,10,26.30
2022,07,28,10,11,26.40
2022,07,28,10,12,26.40
2022,07,28,10,13,26.40
2022,07,28,10,14,26.40
2022,07,28,10,15,26.40
2022,07,28,10,16,26.50
2022,07,28,10,17,26.50
2022,07,28,10,18,26.50
2022,07,28,10,19,26.50
2022,07,28,10,20,26.60
2022,07,28,10,21,26.60
2022,07,28,10,22,26.70
2022,07,28,10,23,26.70
2022,07,28,10,24,26.80
2022,07,28,10,25,26.80
2022,07,28,10,26,26.80
2022,07,28,10,27,26.80
2022,07,28,10,28,26.90
2022,07,28,10,29,26.90
2022,07,28,10,30,26.90
2022,07,28,10,31,26.90
2022,07,28,10,32,27.00
2022,07,28,10,33,26.90
2022,07,28,10,34,26.90
2022,07,28,10,35,26.90
2022,07,28,10,36,27.00
2022,07,28,10,37,27.00
2022,07,28,10,38,27.00
2022,07,28,10,39,27.10
2022,07,28,10,40,27.10
2022,07,28,10,41,27.10
2022,07,28,10,42,27.20
2022,07,28,10,43,27.20
2022,07,28,10,44,27.20
2022,07,28,10,45,27.20
2022,07,28,10,46,27.30
2022,07,28,10,47,27.40
2022,07,28,10,48,27.50
2022,07,28,10,49,27.60
2022,07,28,10,50,27.70
2022,07,28,10,51,27.70
2022,07,28,10,52,27.70
2022,07,28,10,53,27.70
2022,07,28,10,54,27.70
2022,07,28,10,55,27.70
2022,07,28,10,56,27.70
2022,07,28,10,57,27.70
2022,07,28,10,58,27.70
2022,07,28,10,59,27.70
2022,07,28,11,00,27.60
2022,07,28,11,01,27.60
2022,07,28,11,02,27.60
2022,07,28,11,03,27.60
2022,07,28,11,04,27.60
2022,07,28,11,05,27.60
2022,07,28,11,06,27.80
2022,07,28,11,07,27.90
2022,07,28,11,08,28.00
2022,07,28,11,09,28.20
2022,07,28,11,10,28.20
2022,07,28,11,11,28.20
2022,07,28,11,12,28.20
2022,07,28,11,13,28.20
2022,07,28,11,14,28.20
2022,07,28,11,15,28.30
2022,07,28,11,16,28.30
2022,07,28,11,17,28.30
2022,07,28,11,18,28.30
2022,07,28,11,19,28.30
2022,07,28,11,20,28.30
2022,07,28,11,21,28.20
2022,07,28,11,22,28.10
2022,07,28,11,23,28.10
2022,07,28,11,24,28.10
2022,07,28,11,25,28.10
2022,07,28,11,26,28.10
2022,07,28,11,27,28.10
2022,07,28,11,28,28.10
2022,07,28,11,29,28.10
2022,07,28,11,30,28.10
2022,07,28,11,31,28.10
2022,07,28,11,32,28.20
2022,07,28,11,33,28.20
2022,07,28,11,34,28.30
2022,07,28,11,35,28.40
2022,07,28,11,36,28.50
2022,07,28,11,37,28.50
2022,07,28,11,38,28.60
2022,07,28,11,39,28.60
2022,07,28,11,40,28.60
2022,07,28,11,41,28.60
2022,07,28,11,42,28.70
2022,07,28,11,43,28.70
2022,07,28,11,44,28.80
2022,07,28,11,45,28.90
2022,07,28,11,46,29.00
2022,07,28,11,47,29.00
2022,07,28,11,48,29.10
2022,07,28,11,49,29.10
2022,07,28,11,50,29.10
2022,07,28,11,51,29.20
2022,07,28,11,52,29.20
2022,07,28,11,53,29.20
2022,07,28,11,54,29.30
2022,07,28,11,55,29.30
2022,07,28,11,56,29.30
2022,07,28,11,57,29.30
2022,07,28,11,58,29.40
2022,07,28,11,59,29.40
2022,07,28,12,00,29.50
2022,07,28,12,01,29.60
2022,07,28,12,02,29.60
2022,07,28,12,03,29.70
2022,07,28,12,04,29.60
2022,07,28,12,05,29.60
2022,07,28,12,06,29.60
2022,07,28,12,07,29.60
2022,07,28,12,08,29.60
2022,07,28,12,09,29.50
2022,07,28,12,10,29.50
2022,07,28,12,11,29.40
2022,07,28,12,12,29.50
2022,07,28,12,13,29.50
2022,07,28,12,14,29.60
2022,07,28,12,15,29.60
2022,07,28,12,16,29.70
2022,07,28,12,17,29.70
2022,07,28,12,18,29.70
2022,07,28,12,19,29.80
2022,07,28,12,20,29.80
2022,07,28,12,21,29.90
2022,07,28,12,22,29.80
2022,07,28,12,23,29.80
2022,07,28,12,24,29.80
2022,07,28,12,25,29.70
2022,07,28,12,26,29.70
2022,07,28,12,27,29.70
2022,07,28,12,28,29.70
2022,07,28,12,29,29.70
2022,07,28,12,30,29.60
2022,07,28,12,31,29.70
2022,07,28,12,32,29.60
2022,07,28,12,33,29.70
2022,07,28,12,34,29.70
2022,07,28,12,35,29.70
2022,07,28,12,36,29.70
2022,07,28,12,37,29.70
2022,07,28,12,38,29.60
2022,07,28,12,39,29.60
2022,07,28,12,40,29.70
2022,07,28,12,41,29.70
2022,07,28,12,42,29.70
2022,07,28,12,43,29.60
2022,07,28,12,44,29.60
2022,07,28,12,45,29.50
2022,07,28,12,46,29.50
2022,07,28,12,47,29.40
2022,07,28,12,48,29.40
2022,07,28,12,49,29.40
2022,07,28,12,50,29.30
2022,07,28,12,51,29.30
2022,07,28,12,52,29.30
2022,07,28,12,53,29.30
2022,07,28,12,54,29.30
2022,07,28,12,55,29.30
2022,07,28,12,56,29.30
2022,07,28,12,57,29.30
2022,07,28,12,58,29.30
2022,07,28,12,59,29.20
2022,07,28,13,00,29.10
2022,07,28,13,01,28.90
2022,07,28,13,02,28.80
2022,07,28,13,03,28.80
2022,07,28,13,04,28.70
2022,07,28,13,05,28.80
2022,07,28,13,06,28.80
2022,07,28,13,07,28.90
2022,07,28,13,08,28.90
2022,07,28,13,09,29.00
2022,07,28,13,10,29.00
2022,07,28,13,11,29.10
2022,07,28,13,12,29.10
2022,07,28,13,13,29.10
2022,07,28,13,14,29.10
2022,07,28,13,15,29.20
2022,07,28,13,16,29.30
2022,07,28,13,17,29.30
2022,07,28,13,18,29.40
2022,07,28,13,19,29.40
2022,07,28,13,20,29.50
2022,07,28,13,21,29.50
2022,07,28,13,22,29.50
2022,07,28,13,23,29.60
2022,07,28,13,24,29.50
2022,07,28,13,25,29.50
2022,07,28,13,26,29.50
2022,07,28,13,27,29.40
2022,07,28,13,28,29.50
2022,07,28,13,29,29.40
2022,07,28,13,30,29.40
2022,07,28,13,31,29.50
2022,07,28,13,32,29.50
2022,07,28,13,33,29.50
2022,07,28,13,34,29.50
2022,07,28,13,35,29.50
2022,07,28,13,36,29.60
2022,07,28,13,37,29.50
2022,07,28,13,38,29.50
2022,07,28,13,39,29.40
2022,07,28,13,40,29.40
2022,07,28,13,41,29.40
2022,07,28,13,42,29.30
2022,07,28,13,43,29.30
2022,07,28,13,44,29.30
2022,07,28,13,45,29.30
2022,07,28,13,46,29.30
2022,07,28,13,47,29.30
2022,07,28,13,48,29.30
2022,07,28,13,49,29.30
2022,07,28,13,50,29.30
2022,07,28,13,51,29.30
2022,07,28,13,52,29.30
2022,07,28,13,53,29.30
2022,07,28,13,54,29.30
2022,07,28,13,55,29.30
2022,07,28,13,56,29.30
2022,07,28,13,57,29.30
2022,07,28,13,58,29.30
2022,07,28,13,59,29.30
2022,07,28,14,00,29.40
2022,07,28,14,01,29.40
2022,07,28,14,02,29.50
2022,07,28,14,03,29.50
2022,07,28,14,04,29.60
2022,07,28,14,05,29.60
2022,07,28,14,06,29.50
2022,07,28,14,07,29.50
2022,07,28,14,08,29.50
2022,07,28,14,09,29.50
2022,07,28,14,10,29.50
2022,07,28,14,11,29.50
2022,07,28,14,12,29.50
2022,07,28,14,13,29.50
2022,07,28,14,14,29.50
2022,07,28,14,15,29.50
2022,07,28,14,16,29.50
2022,07,28,14,17,29.50
2022,07,28,14,18,29.60
2022,07,28,14,19,29.70
2022,07,28,14,20,29.70
2022,07,28,14,21,29.80
2022,07,28,14,22,29.80
2022,07,28,14,23,29.80
2022,07,28,14,24,29.80
2022,07,28,14,25,29.80
2022,07,28,14,26,29.80
2022,07,28,14,27,29.80
2022,07,28,14,28,29.80
2022,07,28,14,29,29.80
2022,07,28,14,30,29.90
2022,07,28,14,31,29.90
2022,07,28,14,32,29.90
2022,07,28,14,33,29.90
2022,07,28,14,34,30.00
2022,07,28,14,35,30.00
2022,07,28,14,36,30.10
2022,07,28,14,37,30.10
2022,07,28,14,38,30.10
2022,07,28,14,39,30.10
2022,07,28,14,40,30.10
2022,07,28,14,41,30.10
2022,07,28,14,42,30.10
2022,07,28,14,43,30.10
2022,07,28,14,44,30.10
2022,07,28,14,45,30.10
2022,07,28,14,46,30.10
2022,07,28,14,47,30.10
2022,07,28,14,48,30.20
2022,07,28,14,49,30.20
2022,07,28,14,50,30.30
2022,07,28,14,51,30.30
2022,07,28,14,52,30.30
2022,07,28,14,53,30.20
2022,07,28,14,54,30.20
2022,07,28,14,55,30.20
2022,07,28,14,56,30.20
2022,07,28,14,57,30.20
2022,07,28,14,58,30.20
2022,07,28,14,59,30.20
2022,07,28,15,00,30.20
2022,07,28,15,01,30.20
2022,07,28,15,02,30.30
2022,07,28,15,03,30.40
2022,07,28,15,04,30.50
2022,07,28,15,05,30.60
2022,07,28,15,06,30.70
2022,07,28,15,07,30.70
2022,07,28,15,08,30.60
2022,07,28,15,09,30.60
2022,07,28,15,10,30.50
2022,07,28,15,11,30.40
2022,07,28,15,12,30.40
2022,07,28,15,13,30.40
2022,07,28,15,14,30.40
2022,07,28,15,15,30.40
2022,07,28,15,16,30.40
2022,07,28,15,17,30.40
2022,07,28,15,18,30.40
2022,07,28,15,19,30.50
2022,07,28,15,20,30.50
2022,07,28,15,21,30.60
2022,07,28,15,22,30.60
2022,07,28,15,23,30.70
2022,07,28,15,24,30.70
2022,07,28,15,25,30.70
2022,07,28,15,26,30.70
2022,07,28,15,27,30.70
2022,07,28,15,28,30.70
2022,07,28,15,29,30.70
2022,07,28,15,30,30.80
2022,07,28,15,31,30.80
2022,07,28,15,32,30.80
2022,07,28,15,33,30.80
2022,07,28,15,34,30.80
2022,07,28,15,35,30.90
2022,07,28,15,36,30.90
2022,07,28,15,37,31.00
2022,07,28,15,38,31.10
2022,07,28,15,39,31.20
2022,07,28,15,40,31.20
2022,07,28,15,41,31.30
2022,07,28,15,42,31.30
2022,07,28,15,43,31.30
2022,07,28,15,44,31.30
2022,07,28,15,45,31.30
2022,07,28,15,46,31.30
2022,07,28,15,47,31.30
2022,07,28,15,48,31.20
2022,07,28,15,49,31.20
2022,07,28,15,50,31.20
2022,07,28,15,51,31.30
2022,07,28,15,52,31.30
2022,07,28,15,53,31.20
2022,07,28,15,54,31.20
2022,07,28,15,55,31.10
2022,07,28,15,56,31.10
2022,07,28,15,57,31.10
2022,07,28,15,58,31.10
2022,07,28,15,59,31.00
2022,07,28,16,00,31.00
2022,07,28,16,01,30.90
2022,07,28,16,02,30.80
2022,07,28,16,03,30.80
2022,07,28,16,04,30.80
2022,07,28,16,05,30.80
2022,07,28,16,06,30.90
2022,07,28,16,07,30.90
2022,07,28,16,08,31.00
2022,07,28,16,09,31.00
2022,07,28,16,10,31.10
2022,07,28,16,11,31.10
2022,07,28,16,12,31.10
2022,07,28,16,13,31.10
2022,07,28,16,14,31.10
2022,07,28,16,15,31.10
2022,07,28,16,16,31.10
2022,07,28,16,17,31.10
2022,07,28,16,18,31.10
2022,07,28,16,19,31.10
2022,07,28,16,20,31.10
2022,07,28,16,21,31.10
2022,07,28,16,22,31.10
2022,07,28,16,23,31.10
2022,07,28,16,24,31.10
2022,07,28,16,25,31.10
2022,07,28,16,26,31.20
2022,07,28,16,27,31.20
2022,07,28,16,28,31.20
2022,07,28,16,29,31.30
2022,07,28,16,30,31.30
2022,07,28,16,31,31.30
2022,07,28,16,32,31.30
2022,07,28,16,33,31.30
2022,07,28,16,34,31.20
2022,07,28,16,35,31.20
2022,07,28,16,36,31.20
2022,07,28,16,37,31.20
2022,07,28,16,38,31.30
2022,07,28,16,39,31.30
2022,07,28,16,40,31.40
2022,07,28,16,41,31.30
2022,07,28,16,42,31.30
2022,07,28,16,43,31.30
2022,07,28,16,44,31.20
2022,07,28,16,45,31.20
2022,07,28,16,46,31.20
2022,07,28,16,47,31.20
2022,07,28,16,48,31.20
2022,07,28,16,49,31.20
2022,07,28,16,50,31.20
2022,07,28,16,51,31.30
2022,07,28,16,52,31.30
2022,07,28,16,53,31.30
2022,07,28,16,54,31.40
2022,07,28,16,55,31.40
2022,07,28,16,56,31.50
2022,07,28,16,57,31.50
2022,07,28,16,58,31.60
2022,07,28,16,59,31.60
2022,07,28,17,00,31.60
2022,07,28,17,01,31.60
2022,07,28,17,02,31.60
2022,07,28,17,03,31.60
2022,07,28,17,04,31.60
2022,07,28,17,05,31.60
2022,07,28,17,06,31.60
2022,07,28,17,07,31.60
2022,07,28,17,08,31.70
2022,07,28,17,09,31.70
2022,07,28,17,10,31.70
2022,07,28,17,11,31.80
2022,07,28,17,12,31.80
2022,07,28,17,13,31.80
2022,07,28,17,14,31.80
2022,07,28,17,15,31.80
2022,07,28,17,16,31.80
2022,07,28,17,17,31.70
2022,07,28,17,18,31.70
2022,07,28,17,19,31.70